Regional Weather Roundup
Issued by NWS Grand Forks, ND

Home | Current Version | Previous Version | Text Only | Print | Product List | Glossary On
Versions: 1 2 3 4 5 6 7 8 9 10 11 12 13 14 15 16 17 18 19 20 21 22 23 24 25 26 27 28 29 30 31 32 33 34 35 36 37 38 39 40 41 42 43 44 45 46 47 48 49 50
000
ASUS43 KFGF 072231
RWRFGF
PRAIRIE TO PINES  WEATHER ROUNDUP
NATIONAL WEATHER SERVICE EASTERN NORTH DAKOTA/GRAND FORKS ND
400 PM CST WED DEC 07 2016

 **SATELLITE DATA USED TO AUGMENT SKY COVER AT AUTOMATED STATIONS**
 *****  WEATHER ACROSS EASTERN NORTH DAKOTA  *****

CITY           SKY/WX    TMP DP  RH WIND       PRES   REMARKS
GRAND FORKS    LGT SNOW  20  14  77 NW28G36   30.05R VSB 1   WCI   2
GRAND FRKS AFB LGT SNOW  19  14  79 NW22G36   30.07R WCI   3
DEVILS LAKE    SNOW      12   9  87 NW28G35   30.12R VSB 1/2 WCI  -9
FARGO          CLOUDY    16  10  77 W28       30.10R HAZE    WCI  -4
WAHPETON ARPT  CLOUDY    14   9  79 NW30      30.14R WCI  -7
$$

 ***** WEATHER ACROSS CENTRAL AND WESTERN NORTH DAKOTA  *****

CITY           SKY/WX    TMP DP  RH WIND       PRES   REMARKS
BISMARCK       MIX PCPN   4  -2  76 W22G31    30.34R WCI -18
MINOT          LGT SNOW   6   1  80 W31G38    30.30R WCI -18
JAMESTOWN      SNOW       8   4  83 NW35G44   30.17R VSB 1/4 WCI -16
MINOT AFB      SNOW       3   0  85 NW32G45   30.29R VSB 1/2 WCI -22
GARRISON         N/A      2  -2  83 NW38G47   30.29R WCI -26
WILLISTON      LGT SNOW   2  -6  69 NW14      30.47R WCI -16
DICKINSON      PTCLDY    -1  -7  75 NW28G37   30.35R HAZE    WCI -26
HETTINGER      PTCLDY     3  -4  72 NW31G40   30.35R HAZE    WCI -22
$$

 *****  OTHER AIRPORT OBSERVATIONS IN OUR AREA  *****

CITY           SKY/WX    TMP DP  RH WIND       PRES   REMARKS
WALHALLA       LGT SNOW  19  19 100 NW25G35   30.09R WCI   2
GRAFTON AIRPOR CLOUDY    21  19  93 NW20G26   30.07R FOG     WCI   6
VALLEY CITY AR LGT SNOW   9   7  92 NW29G40   30.16R WCI -14
CANDO          CLOUDY    14  10  85 NW21G29   30.18R FOG     WCI  -4
CAVALIER APRT  SNOW      21  18  86 NW22G36   30.06R VSB 1/2 WCI   5
GWINNER        CLOUDY    14   9  79 W28G39    30.17R WCI  -6
SHEYENNE NWR     N/A     11   4  74 NW20      29.95S WCI  -7
ROLLA          HVY SNOW  10   9  92 NW35G44   30.15R WCI -13
 ***** THE ABOVE OBSERVATIONS ARE NON NWS ARE NOT QUALITY
       CONTROLLED AND MAY MIS-REPORT RAIN FOR SNOW...
$$

  *****  WEATHER ACROSS NORTHERN MINNESOTA  *****

CITY           SKY/WX    TMP DP  RH WIND       PRES   REMARKS
FLAG ISLAND    CLOUDY    25  19  80 N23G31    29.89R WCI  10
WARROAD        LGT SNOW  25  19  80 NW10      29.91R WCI  15
ROSEAU         CLOUDY    25  19  80 NW13      29.92R WCI  13
HALLOCK          N/A    N/A N/A N/A N22       30.01R
THF RVR FALLS  LGT SNOW  19  18  93 NW15      29.97R FOG     WCI   5
BAUDETTE       LGT SNOW  25  21  85 N15       29.85R FOG     WCI  13
WASKISH        LGT SNOW  25  23  93 NW12G18   29.87R WCI  14
CROOKSTON      LGT SNOW  19  18  93 NW28      30.03R WCI   1
STEPHEN NDAWN    N/A     21  19  93 NW20        N/A  WCI   6
GREENBUSH NDAW   N/A     21  21 100 NW20        N/A  WCI   6
$$
  *****  WEATHER ACROSS CENTRAL AND WEST MINNESOTA  *****

CITY           SKY/WX    TMP DP  RH WIND       PRES   REMARKS
FOSSTON        LGT SNOW  16  14  93 W17G25    29.97R WCI   0
BEMIDJI        LGT SNOW  17  14  87 W17G25    29.90R VSB 1   WCI   2
PARK RAPIDS    LGT SNOW  15   8  73 W18       29.95R WCI  -2
ELBOW LAKE     LGT SNOW  12  10  90 NW20G28   30.12R VSB 3/4 WCI  -6
WADENA         LGT SNOW  12   7  79 W17G24    30.00R WCI  -5
DETROIT LAKES  LGT SNOW  16  12  86 W17G23    30.02R WCI   0
MOORHEAD       MIX PCPN  16  10  79 W26G36    30.10R VSB 1   WCI  -3
FERGUS FALLS   LGT SNOW  12   9  85 W25       30.15R VSB 3/4 WCI  -8
MORRIS MN      LGT SNOW  14   9  79 W24       30.13R WCI  -5
STAPLES        FLURRIES  12   9  85 W20G25    30.00R WCI  -6
$$
  *****  WEATHER ELSEWHERE ACROSS MINNESOTA  *****

CITY           SKY/WX    TMP DP  RH WIND       PRES   REMARKS
DULUTH         LGT SNOW  18  13  80 W20G26    29.83R BLWGSNOWWCI   2
INTRNTL FALLS  LGT SNOW  23  19  85 N12G24    29.80R VSB 3/4 WCI  12
ELY            LGT SNOW  19  16  86 W13G21    29.74R WCI   7
CLOQUET        LGT SNOW  18  10  73 W10G25    29.87R WCI   6
WHEATON        CLOUDY    16  10  79 W20G30    30.18R HAZE    WCI  -1
BRAINERD       CLOUDY    15   8  73 W21G32    29.97R WCI  -2
HIBBING        LGT SNOW  16  13  88 W10G18    29.83R VSB 3/4 WCI   4
ALEXANDRIA     SNOW      12   8  84 W23G35    30.07R VSB 1/2 WCI  -7
SAINT CLOUD    LGT SNOW  16   7  67 W21G31    30.05R WCI  -1
MINNEAPOLIS    FLURRIES  20   9  62 W18       30.07R WCI   5
$$

  *****  WEATHER ACROSS SOUTH DAKOTA  *****

CITY           SKY/WX    TMP DP  RH WIND       PRES   REMARKS
SIOUX FALLS    PTCLDY    18   6  59 W23G33    30.24R WCI   0
BROOKINGS      LGT SNOW  10   7  85 NW25G32   30.20R WCI -10
WATERTOWN      LGT SNOW   8   3  80 W17G29    30.19R WCI -10
HURON          CLOUDY    15   5  64 NW25G33   30.31R WCI  -4
SISSETON         N/A     14   6  70 NW23G30   30.16R WCI  -5
ABERDEEN       CLOUDY    11   0  61 NW24G35   30.29R WCI  -9
MITCHELL       MOCLDY    18   5  57 NW29G35   30.34R WCI  -1
PIERRE         CLOUDY    13   3  64 NW30G38   30.36R WCI  -8
MOBRIDGE       MOCLDY     9  -1  64 NW32G41   30.30R WCI -14
RAPID CITY     CLEAR     12  -4  48 N23       30.34R WCI  -7
$$

  *****  SOME WEATHER IN NEARBY STATES *****

CITY           SKY/WX    TMP DP  RH WIND       PRES   REMARKS
GLASGOW MT     CLOUDY     3  -6  66 NW24G31   30.52R WCI -20
GREAT FALLS MT CLOUDY     2  -7  66 W3        30.48S
CHEYENNE WY    SUNNY      6  -4  63 N14       30.17R WCI -11
SCOTTSBLUFF NE SUNNY     13  -1  54 NW18      30.34R WCI  -4
OMAHA NE       MOCLDY    24   7  48 NW20      30.34R WCI  10
DES MOINES IA  CLOUDY    25   9  50 W16       30.26R WCI  12
DAVENPORT IA   CLOUDY    25  16  68 W22       30.18R WCI  10
CHICAGO IL     MOCLDY    24  17  74 W17G26    30.10R WCI  11
EAU CLAIRE WI  CLOUDY    20  12  71 W17G24    30.02R WCI   5
LA CROSSE WI   CLOUDY    22  12  65 W16       30.10R WCI   8
$$

  *****  SOME NATIONAL WEATHER *****

CITY           SKY/WX    TMP DP  RH WIND       PRES   REMARKS
LA GUARDIA NY  CLOUDY    47  37  68 NW9       30.02R
RALEIGH NC     PTCLDY    54  42  64 CALM      30.04R
ATLANTA GA     PTCLDY    57  45  64 W9        30.04R
NEW ORLEANS LA CLOUDY    61  56  83 NE7       30.08R
OKLAHOMA CITY  CLOUDY    34  29  82 N12       30.21R
ALBUQUERQUE NM PTSUNNY   44  20  38 N13       30.05R
SALT LAKE CITY MOSUNNY   27  12  53 NW8       30.28S WCI  19
LOS ANGELES CA PTSUNNY   62  50  64 W8        30.08R
BOISE ID       SUNNY     23  17  78 S9        30.36S WCI  13
SEATTLE WA     MOSUNNY   38  23  55 NE10      30.38F
$$

*** WEATHER ACROSS MANITOBA...SASKATCHEWAN AND ONTARIO ***
                ***ONTARIO***

CITY           SKY/WX    TMP DP  RH WIND       PRES   REMARKS
GERALDTON      LGT SNOW  23  19  86 W8        29.54R WCI  14
THUNDER BAY    LGT SNOW  27  25  93 W9        29.65R WCI  17
SIOUX LOOKOUT  LGT SNOW  21  18  86 N8        29.74R VSB 1   WCI  12
TORONTO        MOCLDY    36  27  69 SW14      29.94R
BIG TROUT LK   LGT SNOW  23  21  93 N10G18    29.86R WCI  12
PICKLE LAKE    LGT SNOW  21  19  93 N9G23     29.72R DRFTSNOWWCI  11
DRYDEN         LGT SNOW  21  19  93 N8        29.77R WCI  12
KENORA         LGT SNOW  21  19  93 N13G20    29.85R WCI   9
$$
                *** MANITOBA***

CITY           SKY/WX    TMP DP  RH WIND       PRES   REMARKS
BRANDON        FLURRIES  16  10  79 NW18G24   30.20R WCI  -1
DAUPHIN        CLOUDY    18  12  79 N16G23    30.28R WCI   3
ISLAND LAKE    LGT SNOW  18  14  86 N18G31    30.11R DRFTSNOWWCI   2
PILOT MOUND      N/A     14  12  92 NW23G30     N/A  WCI  -5
THE PAS        FLURRIES  12   7  79 N18G24    30.39R WCI  -5
THOMPSON       CLOUDY     0  -6  78 NW8G17    30.37R WCI -15
WINNIPEG       LGT SNOW  21  18  86 N28G35    30.05R BLWGSNOWWCI   3
LYNN LAKE      CLEAR     -9 -13  84 N9        30.47R WCI -27
CHURCHILL      SNOW       7   3  85 NW29G41   30.36R VSB 1/8 WCI -16
GILLAM         FLURRIES   0  -6  78 N18G24    30.31R WCI -22
$$
                ***SASKATCHEWAN***

CITY           SKY/WX    TMP DP  RH WIND       PRES   REMARKS
ESTEVAN        SNOW       3  -2  78 NW30G39   30.38R VSB 1/2 WCI -21
KINDERSLEY     CRYSTALS  -2  -9  71 NW9       30.55R WCI -18
LLOYDMINSTER   MOCLDY    -2  -9  71 NW10G17   30.58R WCI -19
PRINCE ALBERT  FLURRIES   3  -6  66 NW12G17   30.52R WCI -13
REGINA         CLOUDY     3  -2  78 NW22G29   30.45R WCI -19
YORKTON        CLOUDY    10   5  79 NW21G28   30.34R WCI  -9
N. BATTLEFORD  FLURRIES   1  -4  78 NW13G18   30.59R WCI -16
LA RONGE       MOCLDY     0  -8  71 NW10      30.56R WCI -17
SASKATOON      FLURRIES   3  -4  72 NW15      30.54R WCI -15
SWIFT CURRENT  CLOUDY    -6  -9  84 W22       30.48R WCI -31
$$
NOTE: THESE ARE AUTOMATED STATIONS WITH LIMITED QUALITY CONTROL
      "FAIR" INDICATES FEW OR NO CLOUDS BELOW 12,000 FEET WITH NO
      SIGNIFICANT WEATHER AND/OR OBSTRUCTIONS TO VISIBILITY.
      SKY/WX - SKY CONDITION AND SIGNIFICANT WEATHER.
      TMP - AIR TEMPERATURE.    DP   - DEWPOINT TEMPERATURE.
      RH  - RELATIVE HUMIDITY.  PRES - PRESSURE.
      HX  - HEAT INDEX.         WCI  - WIND CHILL INDEX.
$



USA.gov is the U.S. government's official web portal to all federal, state and local government web resources and services.